Regional Weather Roundup
Issued by NWS Northern Indiana

Home | Current Version | Previous Version | Text Only | Print | Product List | Glossary Off
Versions: 1 2 3 4 5 6 7 8 9 10 11 12 13 14 15 16 17 18 19 20 21 22 23 24 25 26 27 28 29 30 31 32 33 34 35 36 37 38 39 40 41 42 43 44 45 46 47 48 49 50

000
ASUS43 KIWX 220000
RWRIWX

KIWX WEATHER ROUNDUP
NATIONAL WEATHER SERVICE NORTHERN INDIANA
800 PM EDT TUE OCT 21 2014

NOTE: "FAIR" INDICATES FEW OR NO CLOUDS BELOW 12,000 FEET WITH NO
SIGNIFICANT WEATHER AND/OR OBSTRUCTIONS TO VISIBILITY.

* THESE STATIONS ARE NOT UNDER NWS QUALITY CONTROL. THEY ALSO MAY NOT
  REPORT WEATHER SUCH AS PRECIPITATION OR FOG.

INZ001>027-220100-
NORTHERN INDIANA

CITY           SKY/WX    TMP DP  RH WIND       PRES   REMARKS
SOUTH BEND     CLOUDY    49  37  63 NE8       30.21R
6HR MIN TEMP:  49; 6HR MAX TEMP:  54;

ELKHART*       CLOUDY    48  36  61 NE5       30.20R
GOSHEN         CLOUDY    48  38  68 NE7       30.19R
6HR MIN TEMP:  48; 6HR MAX TEMP:  52;

WARSAW*        CLOUDY    46  37  71 NE5       30.19R
ANGOLA*        CLOUDY    46  28  49 NE7       30.18R
FORT WAYNE     CLOUDY    48  38  68 NE8       30.18R
6HR MIN TEMP:  48; 6HR MAX TEMP:  53;


$$
INZ028>050-220100-
CENTRAL INDIANA

CITY           SKY/WX    TMP DP  RH WIND       PRES   REMARKS
LAFAYETTE      CLEAR     48  40  73 N9        30.18R
6HR MIN TEMP:  48; 6HR MAX TEMP:  55;

KOKOMO*        CLOUDY    52  39  62 N12       30.17R
6HR MIN TEMP:  52; 6HR MAX TEMP:  57;

MUNCIE*        CLOUDY    51  41  68 NE9       30.15R
6HR MIN TEMP:  51; 6HR MAX TEMP:  57;

INDIANAPOLIS   PTCLDY    48  41  76 NW6       30.14R
6HR MIN TEMP:  48; 6HR MAX TEMP:  57;


$$
MIZ043>046-050>051-056>058-064>065-071>073-077>080-220100-
SOUTHWEST LOWER MICHIGAN

CITY           SKY/WX    TMP DP  RH WIND       PRES   REMARKS
BATTLE CREEK   CLEAR     44  34  67 CALM      30.20R
6HR MIN TEMP:  44; 6HR MAX TEMP:  50;

BENTON HARBOR  CLEAR     40  37  89 CALM      30.21R
6HR MIN TEMP:  40; 6HR MAX TEMP:  49;

COLDWATER*     CLOUDY    47  38  73 N7        30.18S
6HR MIN TEMP:  47; 6HR MAX TEMP:  50;

HILLSDALE*     CLOUDY    44  36  72 N5        30.18R
HOLLAND        CLEAR     44  37  76 CALM      30.21R
6HR MIN TEMP:  44; 6HR MAX TEMP:  54;

GRAND RAPIDS   CLEAR     44  36  73 CALM      30.20R
6HR MIN TEMP:  44; 6HR MAX TEMP:  52;

KALAMAZOO      CLEAR     43  36  76 CALM      30.20R
6HR MIN TEMP:  43; 6HR MAX TEMP:  50;

STURGIS*       CLOUDY    46  37  71 N5        30.19R
THREE RIVERS*  CLOUDY    47  38  72 N3        30.20R
6HR MIN TEMP:  47; 6HR MAX TEMP:  50;


$$
OHZ001>008-015>018-024>025-220100-
NORTHWEST OHIO

CITY           SKY/WX    TMP DP  RH WIND       PRES   REMARKS
DEFIANCE       CLOUDY    47  36  65 N8        30.18R
6HR MIN TEMP:  46; 6HR MAX TEMP:  52;

FINDLAY        CLOUDY    47  38  71 N10       30.14R
6HR MIN TEMP:  47; 6HR MAX TEMP:  51;

TOLEDO EXPRESS CLOUDY    45  37  73 N9        30.16R
6HR MIN TEMP:  45; 6HR MAX TEMP:  48;

TOLEDO METCALF CLOUDY    46  37  71 N14       30.16R
6HR MIN TEMP:  46; 6HR MAX TEMP:  49;

LIMA           CLOUDY    47  36  65 N10       30.14R
6HR MIN TEMP:  47; 6HR MAX TEMP:  51;


$$
AND FOR LAKE MICHIGAN COASTAL AND OPEN LAKE BUOY OBSERVATIONS

STATION/POSITION TEMP    WIND        PRES    VSBY  WAVE
                 AIR SEA DIR/SP/G                  HT/PER
                 (F)     (DEG/KT/KT) (MB)    (MI)  (FT/S)
CALUMET HARBOR    49     340/  9/ 13 1021.8R
MICHIGAN CITY     50     350/ 17/ 21   N/A
SAINT JOSEPH      50                 1023.0R
SOUTH LAKE BUOY   49 54  350/ 16/ 19 1022.8R         5/ 7

$$
&&



USA.gov is the U.S. government's official web portal to all federal, state and local government web resources and services.